Location: Chihuahua
(28.6330°N, 106.0830°W)
Time: 16:39:19
(UTC-07:00)

Daily predictions for brighter satellites

Satellite Brightness Start Highest point End
(mag) Time Altitude Azimuth Time Altitude Azimuth Time Altitude Azimuth
METEOR-M 4.3 18:47:06 10° SSE 18:52:26 84° WSW 18:57:48 10° NNW
In-Cosmos 22 Rocket 4.3 18:48:19 10° N 18:53:29 51° E 18:58:37 10° SSE
CENTAUR R/B 3.4 18:48:37 10° SW 18:54:16 54° WNW 19:00:37 10° NNE
SJ-6B 2.9 18:52:50 10° SSE 18:56:37 57° ENE 19:00:30 10° N
Cosmos 1697 Rocket 3.2 18:53:54 10° SSW 18:59:30 67° WNW 19:05:07 10° NNE
OTV 4 2.2 18:57:45 10° NW 19:00:03 21° NNE 19:02:22 10° ENE
CZ-3B DEB 2.7 18:57:54 10° NNW 19:00:43 17° NNE 19:02:40 10° ENE
Cosmos 1400 Rocket 3.7 19:02:30 10° NNE 19:05:53 28° E 19:09:18 10° SE
Cosmos 1933 Rocket 3.7 19:02:00 10° N 19:06:28 85° W 19:10:55 10° S
ALOS 2.2 19:03:00 10° SSE 19:07:39 75° ENE 19:12:19 10° N
USA 186 3.4 19:11:06 11° E 19:11:54 12° ENE 19:13:06 10° NE
Cosmos 1892 3.5 19:08:36 10° NNE 19:11:58 30° E 19:15:21 10° SE
FENGYUN 3A 3.6 19:07:01 10° SSE 19:12:22 78° ENE 19:17:44 10° N
H-2A R/B 3.0 19:09:33 10° SSE 19:13:20 48° ENE 19:17:07 10° N
BREEZE-M DEB (TANK) 2.8 19:11:26 10° NW 19:14:02 65° NE 19:19:51 10° SE
Cosmos 2297 Rocket 2.4 19:08:46 10° NNW 19:14:26 80° WSW 19:20:04 10° SSE
Nadezhda 4 Rocket 4.2 19:11:52 10° N 19:17:58 52° E 19:24:05 10° SSE
Cosmos 1315 Rocket 4.2 19:15:12 10° NNE 19:18:16 20° ENE 19:20:23 14° ESE
Cosmos 2322 Rocket 2.9 19:15:30 10° SSE 19:20:19 30° ESE 19:25:08 10° NE
Cosmos 1707 Rocket 3.9 19:16:31 10° SSE 19:20:45 45° E 19:25:00 10° NNE
GPS 2-17 Rocket1 4.2 19:18:23 10° SW 19:22:02 26° S 19:24:44 15° SE
Meteor 2-3 Rocket 3.7 19:19:05 10° N 19:24:47 68° E 19:30:31 10° SSE
Spot 2 Rocket 3.6 19:20:28 10° SSE 19:25:26 55° ENE 19:30:24 10° N
Cosmos 1092 Rocket 4.4 19:20:45 10° N 19:26:43 42° E 19:32:39 10° SSE
CZ-2D R/B 3.4 19:28:02 10° SSE 19:31:50 54° ENE 19:35:39 10° N
Cosmos 1980 Rocket 2.8 19:26:27 10° SSW 19:32:01 60° WNW 19:37:38 10° N
Resurs 1-3 3.6 19:30:39 10° SSE 19:34:59 66° ENE 19:39:20 10° N
Intercosmos 25 Rocket 4.2 19:36:12 21° E 19:36:12 21° E 19:38:28 10° NE
Meteor 1-29 3.6 19:34:45 10° NNE 19:37:56 33° E 19:39:41 20° SSE
Helios 1B rocket 2.5 19:34:37 10° NNE 19:38:37 50° E 19:42:35 10° S
SL-8 R/B 4.2 19:34:34 10° NW 19:39:14 48° NE 19:41:56 23° ESE
Lacrosse 5 4.4 19:38:35 10° WNW 19:41:43 16° WSW 19:44:49 10° SSW
Cosmos 1825 3.9 19:41:24 10° NE 19:43:20 17° ENE 19:43:20 17° ENE
Cosmos 1869 Rocket 3.5 19:40:51 10° N 19:45:18 66° E 19:48:55 15° SSE
Envisat 3.7 19:42:59 23° ESE 19:45:21 34° ENE 19:49:54 10° N
Cosmos 2227 Rocket 4.1 19:40:39 10° NW 19:45:26 29° WSW 19:50:11 10° SSW
Cosmos 1302 Rocket 4.5 19:40:29 10° SSW 19:45:38 63° WNW 19:50:47 10° N
Hubble Space Telescope 2.6 19:42:46 10° WSW 19:45:55 21° SSW 19:47:53 15° SSE
Cosmos 1939 Rocket 4.1 19:45:36 23° E 19:46:02 24° ENE 19:49:17 10° NNE
SL-16 R/B 2.2 19:41:39 10° S 19:47:09 55° ESE 19:52:41 10° NNE
Cosmos 2242 Rocket 4.0 19:43:53 14° SSE 19:47:26 42° E 19:51:42 10° NNE
CZ-4B DEB 4.3 19:48:17 20° NE 19:48:17 20° NE 19:50:02 10° NNE
Centaur AC-42 3.7 19:10:39 10° W 19:53:11 57° SSW 19:57:14 25° SE
GPS 2-04 Rocket1 2.4 19:54:12 10° WNW 19:57:50 76° SSW 19:58:46 48° SE
Cosmos 2279 Rocket 4.2 19:54:47 13° SSE 20:00:04 49° E 20:06:02 10° NNE
Resurs 01 Rocket 2.7 19:59:31 10° S 20:03:44 44° W 20:08:00 10° NNW
OAO 3 Rocket 4.2 19:59:08 10° W 20:03:49 43° N 20:07:08 18° NE
Helios 1A 2.9 20:03:27 38° SSE 20:04:59 71° ENE 20:09:12 10° N
SEDSat Delta rocket 3.5 19:59:44 10° WSW 20:05:05 89° SSE 20:08:32 27° ENE
CCE 1 Rocket 4.4 19:56:22 10° W 20:05:21 90° SE 20:07:45 35° E
Cosmos 2195 Rocket 4.5 19:59:23 10° N 20:05:25 59° E 20:08:36 28° SSE
SAR-Lupe-4 3.4 20:07:09 64° SE 20:07:32 72° ENE 20:11:07 10° N
USA 234 3.9 20:07:21 28° E 20:10:14 43° NE 20:16:20 10° NNW
Atlas Centaur 2 2.8 20:05:15 10° WSW 20:12:15 68° SSE 20:16:54 28° E
Meteor 2-20 4.3 20:07:21 10° N 20:13:29 83° E 20:17:26 24° S
Cosmos 2227 4.1 20:15:52 10° NNW 20:21:37 81° ENE 20:23:23 46° SSE
ERS-1 Rocket 3.7 20:22:11 36° ENE 20:22:11 36° ENE 20:26:23 10° N
ATLAS CENTAUR R/B 3.3 20:20:18 10° NW 20:23:51 50° SW 20:28:14 25° SSE
SAR-Lupe-1 4.3 20:25:20 69° WNW 20:25:20 69° WNW 20:28:39 10° NNW
Cosmos 1408 3.4 20:21:58 10° N 20:24:36 43° NNE 20:24:36 43° NNE
Cosmos 1486 Rocket 4.4 20:27:22 10° NNW 20:32:31 61° WSW 20:34:21 38° SSW
Sakura Rocket 4.2 20:31:17 10° SW 20:33:30 30° SW 20:33:30 30° SW
OTV 4 3.1 20:33:12 10° WNW 20:34:14 20° WNW 20:34:14 20° WNW
IUS-7 SRM-1 4.3 20:34:20 10° W 20:38:03 59° S 20:40:16 45° SE
SeaSat 1 4.2 20:39:59 19° NE 20:39:59 19° NE 20:42:27 10° N
Cosmos 1992 Rocket 4.3 20:34:14 10° SSW 20:39:24 65° WNW 20:44:36 10° N
Cosmos 220 Rocket 4.4 20:35:31 10° NNW 20:39:12 60° N 20:39:12 60° N
Milstar 3 2.6 20:42:37 10° W 20:50:02 80° S 20:50:57 67° SE
USA 229 DEB 4.0 20:51:56 48° ENE 20:51:56 48° ENE 20:56:57 10° NE
USA 229 4.1 20:52:13 45° ENE 20:52:13 45° ENE 20:57:02 10° NE
Cosmos 2026 Rocket 4.3 20:46:11 10° NNW 20:52:16 61° W 20:54:29 38° SSW
Gblst 52 Del rocket 4.4 20:47:09 10° NW 20:52:38 55° SW 20:52:45 55° SW
Skynet4D Del rocket 4.2 20:45:53 10° W 20:54:00 78° S 20:55:00 68° ESE
DELTA 2 R/B (1) 3.7 20:54:34 10° WNW 20:59:32 69° W 20:59:32 69° W
H-2A R/B 4.1 21:04:41 16° NNE 21:04:41 16° NNE 21:05:57 10° NNE
Cosmos 1503 Rocket 4.4 20:58:31 10° NNW 21:03:11 59° WNW 21:03:11 59° WNW
Cosmos 2322 Rocket 4.2 20:59:36 10° WSW 21:04:14 26° WNW 21:08:53 10° N
Cosmos 2263 Rocket 2.9 21:02:06 10° NNW 21:06:05 45° NNE 21:06:05 45° NNE
Meteor 2-10 Rocket 4.0 21:11:52 65° WNW 21:11:52 65° WNW 21:17:32 10° N
Cosmos 2360 Rocket 2.7 21:15:52 55° NNW 21:15:52 55° NNW 21:20:37 10° NNE
Lacrosse 4 Rocket 3.5 21:13:59 10° NNW 21:16:01 27° NW 21:16:01 27° NW
ATLAS 5 CENTAUR R/B 3.7 21:43:53 10° NNW 21:47:28 36° N 21:47:28 36° N
USA 234 4.3 21:54:42 36° W 21:54:42 36° W 21:59:15 10° WNW
Atlas Centaur 2 3.6 21:54:20 10° W 21:59:34 48° W 21:59:34 48° W
